Retour au catalogue

SPOT 5

ActifScienceSSO
NORAD 27421·PAYLOAD·🇫🇷 France

Lancé May 4, 2002 depuis Guiana Space Centre

Loading…

Prochains Passages (prochaines 24 heures)

TLE

FraisSource: Space-Track

Époque: Sep 14, 2026, 12:23 UTC

1 27421U 02021A   26257.51637640  .00000271  00000-0  66837-4 0  9999
2 27421  97.9782 292.3907 0129374 359.1172   0.9778 14.54811573275831

Suivez SPOT 5 en temps réel avec AllMySat

Download on the App Store